Tracking 30995 objects as of 5-Jul-2025
HD Live streaming from Space Station
objects crossing your sky now

DIAMANT B-P4 DEB

Track DIAMANT B-P4 DEB now!
10-day predictions


NORAD ID: 7659
Int'l Code: 1975-010E
Perigee: 787.4 km
Apogee: 1,057.5 km
Inclination: 49.8 °
Period: 103.3 minutes
Semi major axis: 7293 km
RCS: 0.1434 m2 (medium)
Launch date: February 6, 1975
Source: France (FR)
Launch site: FRENCH GUIANA (FRGUI)

Note: This is SATELLITE DEBRIS
Your satellite tracking list
STARLINK-1733
Track 1 satellite(s)




NASA's NSSDC Master Catalog

Two Line Element Set (TLE):
1 07659U 75010E   25186.04138706  .00000065  00000-0  13733-3 0  9992
2 07659  49.8166  44.7007 0185156 243.9978 114.1747 13.93799813556928
Source of the keplerian elements: AFSPC